Weather in Berezno

Ukraine / Rovno District     50°59′52″N   26°44′25″E
temp.,
°C
wind,
m/s
gust,
m/s
humid.,
%
clouds,
%
prec.,
mm/h
press.,
hPa
HPBL,
m
31 july, sat
sat3100:00+19ssw39687 0.0 1009153
03:00+18sw347618 0.0 101070
06:00+17sw35780 0.0 101073
09:00+23ssw23600 0.0 1010348
12:00+29ssw454492 0.0 10091385
15:00+31sw5634100 0.0 10082992
18:00+30sw4540100 0.0 10071332
21:00+24sw336173 0.0 100829
1 august, sun
sun100:00+17nw3794100 1.9 1010234
03:00+18ssw2395100 4.4 1011119
06:00+17wsw249621 0.1 101191
09:00+20nw23829 0.1 1011434
12:00+26n12577 0.0 10111114
15:00+29ssw11477 0.0 10101518
18:00+28sse2345100 0.0 10081243
21:00+23se366884 0.0 100784
2 august, mon
mon200:00+23sse51269100 0.0 1007383
03:00+19ne259362 0.8 1006119
06:00+18sse349345 0.1 100575
09:00+22wsw5769100 0.1 1005462
12:00+26w57580 0.1 10061059
15:00+26w8115680 0.1 10061574
18:00+19nw91173100 0.0 10071102
21:00+16wnw478210 0.0 1011385
3 august, tue
tue300:00+14wsw379423 0.0 1012147
03:00+13wsw38934 0.0 1013181
06:00+14wsw399284 0.0 1014246
09:00+19w57675 0.0 1014616
12:00+23w575358 0.4 10151800
15:00+22wnw4651100 0.6 10151112
18:00+22wnw4648100 0.0 1015925
21:00+19w3752100 0.0 1016206
4 august, wed
wed400:00+15w22690 0.0 101717
03:00+13wsw2276100 0.0 101711
06:00+13ese2275100 0.0 101711
09:00+19ese3457100 0.0 1017295
12:00+24se4546100 0.0 10151366
15:00+23sse685787 0.1 1013911
18:00+19se6977100 1.4 1013564
21:00+17ese4109145 1.5 1012454